Date String (YYYY-MM-DD hh:mm:ss) UTC,Instrument flags,absolute air pressure of the measurement (hPa),sample flow rate (lpm),inlet stack bypass flow (lpm),air temperature of the measurement (°C),ambient temperature measured by the external sensor (°C),aerosol sample conditioner tube jacket temperature (°C),OPC LED temperature (°C),internal box temperature (°C),relative humidity of the measurement (%),span deviation,mass concentration of particles derived from Lorenz-Mie calculation of OPC scattering (μg/m³),mass concentration of particles derived from Lorenz-Mie calculation of OPC scattering (μg/m³),mass concentration of particles derived from Lorenz-Mie calculation of OPC scattering (μg/m³)
DateTimeUTC,F1_M11,P_M11,Q1_M11,Q2_M11,T1_M11,T2_M11,T3_M11,T4_M11,T5_M11,U1_M11,ZSPAN_M11,X0_M11,X2_M11,X1_M11
2023-10-27 13:00:00,SystemResetWarning,0833.8,4.99,000.00,023.0,021.6,000.0,031.5,024.8,15.2,-000.1,0010.82,0007.17,0006.70
2023-10-27 13:01:00,SystemResetWarning,0833.8,5.00,000.00,023.0,021.6,000.0,031.5,024.8,15.2,-000.2,0010.74,0007.16,0006.71
2023-10-27 13:02:00,SystemResetWarning,0833.8,5.00,000.00,023.0,021.6,000.0,031.5,024.8,15.2,-000.4,0010.75,0007.17,0006.72
2023-10-27 13:03:00,SystemResetWarning,0833.8,4.99,000.00,023.0,021.6,000.0,031.5,024.8,15.2,-000.2,0010.79,0007.20,0006.73
2023-10-27 13:04:00,SystemResetWarning,0833.8,5.00,000.00,023.0,021.6,000.0,031.5,024.8,15.2,0000.3,0010.61,0007.23,0006.74
2023-10-27 13:05:00,SystemResetWarning,0833.8,5.00,000.00,023.0,021.6,000.0,031.5,024.8,15.1,0000.1,0010.54,0007.25,0006.74
2023-10-27 13:06:00,SystemResetWarning,0833.8,5.00,000.00,023.0,021.6,000.0,031.5,024.8,15.1,0000.0,0010.27,0007.21,0006.74
2023-10-27 13:07:00,SystemResetWarning,0833.8,4.99,000.00,023.0,021.6,000.0,031.5,024.8,15.2,0000.0,0009.93,0007.20,0006.76
2023-10-27 13:08:00,SystemResetWarning,0833.8,5.00,000.00,023.0,021.6,000.0,031.5,024.8,15.1,0000.0,0009.69,0007.23,0006.78
2023-10-27 13:09:00,SystemResetWarning,0833.8,5.00,000.00,023.0,021.6,000.0,031.5,024.8,15.1,-000.4,0009.48,0007.23,0006.78
2023-10-27 13:10:00,SystemResetWarning,0833.8,5.01,000.00,023.0,021.6,000.0,031.5,024.8,15.2,-000.6,0009.52,0007.24,0006.79
2023-10-27 13:11:00,SystemResetWarning,0833.8,5.01,000.00,023.0,021.5,000.0,031.4,024.8,15.1,-001.6,0009.62,0007.24,0006.82
2023-10-27 13:12:00,SystemResetWarning,0833.8,5.00,000.00,023.0,021.5,000.0,031.4,024.8,15.1,-001.6,0009.64,0007.25,0006.83
2023-10-27 13:13:00,SystemResetWarning,0833.8,4.99,000.00,023.0,021.5,000.0,031.4,024.8,15.2,-001.2,0009.65,0007.26,0006.84
2023-10-27 13:14:00,SystemResetWarning,0833.8,5.00,000.00,023.0,021.5,000.0,031.4,024.8,15.1,-001.4,0009.64,0007.26,0006.85
2023-10-27 13:15:00,SystemResetWarning,0833.8,5.00,000.00,023.0,021.5,000.0,031.5,024.8,15.1,-001.6,0009.60,0007.25,0006.86
2023-10-27 13:16:00,SystemResetWarning,0833.8,5.00,000.00,023.0,021.5,000.0,031.5,024.8,15.1,-002.2,0009.59,0007.25,0006.88
2023-10-27 13:17:00,SystemResetWarning,0833.8,5.00,000.00,023.0,021.5,000.0,031.4,024.8,15.1,-001.9,0009.60,0007.27,0006.90
2023-10-27 13:18:00,SystemResetWarning,0833.8,5.00,000.00,023.0,021.5,000.0,031.4,024.8,15.2,-001.8,0009.71,0007.31,0006.92
2023-10-27 13:19:00,SystemResetWarning,0833.8,5.00,000.00,023.0,021.5,000.0,031.4,024.7,15.2,-001.2,0009.84,0007.35,0006.92
2023-10-27 13:20:00,SystemResetWarning,0833.8,5.00,000.00,023.0,021.5,000.0,031.4,024.8,15.2,-000.4,0010.32,0007.36,0006.93
2023-10-27 13:21:00,SystemResetWarning,0833.8,5.00,000.00,023.0,021.5,000.0,031.4,024.8,15.2,0001.5,0010.39,0007.41,0006.95
2023-10-27 13:22:00,SystemResetWarning,0833.8,5.01,000.00,023.0,021.5,000.0,031.4,024.8,15.2,0001.6,0010.28,0007.41,0006.95
2023-10-27 13:23:00,SystemResetWarning,0833.8,5.00,000.00,023.0,021.5,000.0,031.4,024.8,15.2,0001.0,0010.23,0007.41,0006.94
2023-10-27 13:24:00,SystemResetWarning,0833.8,5.00,000.00,023.0,021.5,000.0,031.4,024.8,15.2,0000.5,0010.25,0007.40,0006.94
2023-10-27 13:25:00,SystemResetWarning,0833.8,5.00,000.00,023.0,021.5,000.0,031.4,024.8,15.2,0000.0,0010.28,0007.43,0006.96
2023-10-27 13:26:00,SystemResetWarning,0833.9,5.00,000.00,023.0,021.5,000.0,031.4,024.8,15.1,0000.0,0010.23,0007.40,0006.95
2023-10-27 13:27:00,SystemResetWarning,0833.8,5.00,000.00,023.0,021.5,000.0,031.4,024.8,15.1,0000.0,0010.35,0007.41,0006.94
2023-10-27 13:28:00,SystemResetWarning,0833.9,5.00,000.00,023.0,021.5,000.0,031.4,024.8,15.1,0000.0,0010.42,0007.40,0006.94
2023-10-27 13:29:00,SystemResetWarning,0833.8,5.00,000.00,023.0,021.5,000.0,031.4,024.8,15.1,0000.0,0010.43,0007.37,0006.93
2023-10-27 13:30:00,SystemResetWarning,0833.9,5.00,000.00,023.0,021.5,000.0,031.4,024.8,15.1,-000.6,0010.29,0007.33,0006.91
2023-10-27 13:31:00,SystemResetWarning,0833.9,5.00,000.00,023.0,021.5,000.0,031.4,024.7,15.1,-000.1,0009.78,0007.30,0006.91
2023-10-27 13:32:00,SystemResetWarning,0833.9,5.01,000.00,023.0,021.5,000.0,031.4,024.7,15.1,-000.3,0009.74,0007.29,0006.91
2023-10-27 13:33:00,SystemResetWarning,0833.9,5.00,000.00,023.0,021.5,000.0,031.4,024.8,15.1,-001.3,0009.78,0007.28,0006.91
2023-10-27 13:34:00,SystemResetWarning,0833.9,5.00,000.00,023.0,021.5,000.0,031.4,024.8,15.1,-001.4,0009.75,0007.27,0006.90
2023-10-27 13:35:00,SystemResetWarning,0833.9,5.00,000.00,023.0,021.5,000.0,031.4,024.8,15.1,-000.9,0009.79,0007.28,0006.91
2023-10-27 13:36:00,SystemResetWarning,0833.9,5.00,000.00,023.0,021.5,000.0,031.4,024.8,15.1,-000.8,0009.82,0007.27,0006.91
2023-10-27 13:37:00,SystemResetWarning,0833.9,5.00,000.00,023.0,021.5,000.0,031.4,024.7,15.1,-000.4,0010.06,0007.28,0006.91
2023-10-27 13:38:00,SystemResetWarning,0833.9,5.00,000.00,023.0,021.5,000.0,031.4,024.7,15.1,-000.1,0009.94,0007.30,0006.93
2023-10-27 13:39:00,SystemResetWarning,0833.8,5.00,000.00,023.0,021.5,000.0,031.4,024.7,15.1,0000.0,0009.92,0007.32,0006.93
2023-10-27 13:40:00,SystemResetWarning,0833.8,5.00,000.00,023.0,021.5,000.0,031.4,024.7,15.1,0000.0,0009.84,0007.34,0006.94
2023-10-27 13:41:00,SystemResetWarning,0833.9,5.00,000.00,023.0,021.5,000.0,031.4,024.7,15.1,0000.0,0009.97,0007.36,0006.95
2023-10-27 13:42:00,SystemResetWarning,0833.9,5.00,000.00,023.0,021.5,000.0,031.4,024.7,15.1,0000.0,0010.01,0007.37,0006.97
2023-10-27 13:43:00,SystemResetWarning,0833.9,5.01,000.00,023.0,021.5,000.0,031.4,024.7,15.1,0000.0,0009.99,0007.36,0006.97
2023-10-27 13:44:00,SystemResetWarning,0833.8,5.00,000.00,023.0,021.5,000.0,031.4,024.7,15.1,0000.8,0009.95,0007.37,0006.98
2023-10-27 13:45:00,SystemResetWarning,0833.9,5.00,000.00,023.0,021.5,000.0,031.4,024.7,15.2,0001.6,0009.99,0007.38,0006.99
2023-10-27 13:46:00,SystemResetWarning,0833.9,5.00,000.00,022.9,021.5,000.0,031.4,024.7,15.2,0002.1,0009.96,0007.39,0007.00
2023-10-27 13:47:00,SystemResetWarning,0833.9,5.00,000.00,022.9,021.5,000.0,031.4,024.7,15.2,0002.3,0009.95,0007.39,0007.00
2023-10-27 13:48:00,SystemResetWarning,0833.9,5.00,000.00,022.9,021.5,000.0,031.4,024.7,15.2,0002.0,0009.84,0007.41,0007.01
2023-10-27 13:49:00,SystemResetWarning,0833.9,5.00,000.00,022.9,021.4,000.0,031.4,024.7,15.2,0002.1,0009.83,0007.42,0007.01
2023-10-27 13:50:00,SystemResetWarning,0834.0,5.00,000.00,022.9,021.4,000.0,031.4,024.7,15.2,0001.8,0009.87,0007.43,0007.01
2023-10-27 13:51:00,SystemResetWarning,0834.0,5.01,000.00,022.9,021.4,000.0,031.4,024.6,15.2,0001.4,0009.84,0007.41,0007.00
2023-10-27 13:52:00,SystemResetWarning,0834.0,5.01,000.00,022.9,021.4,000.0,031.4,024.6,15.2,0001.0,0009.81,0007.40,0007.00
2023-10-27 13:53:00,SystemResetWarning,0833.9,5.00,000.00,022.9,021.4,000.0,031.4,024.6,15.1,0000.4,0010.27,0007.42,0007.01
2023-10-27 13:54:00,SystemResetWarning,0834.0,4.99,000.00,022.9,021.4,000.0,031.4,024.6,15.1,0001.3,0010.51,0007.42,0007.01
2023-10-27 13:55:00,SystemResetWarning,0834.0,4.99,000.00,022.9,021.4,000.0,031.3,024.6,15.1,0000.7,0010.47,0007.40,0007.01
2023-10-27 13:56:00,SystemResetWarning,0834.0,4.99,000.00,022.9,021.4,000.0,031.3,024.6,15.0,-001.0,0010.43,0007.37,0006.99
2023-10-27 13:57:00,SystemResetWarning,0834.1,5.01,000.00,022.9,021.4,000.0,031.3,024.6,14.9,-001.6,0011.60,0007.38,0006.99
2023-10-27 13:58:00,SystemResetWarning,0834.1,5.01,000.00,022.9,021.4,000.0,031.3,024.5,14.9,-001.3,0012.24,0007.41,0007.00
2023-10-27 13:59:00,SystemResetWarning,0834.1,5.01,000.00,022.8,021.3,000.0,031.3,024.5,15.0,-000.9,0012.27,0007.43,0007.00
